This is the latest recevied weather packets stored in our database for station/object 4S6DRJ-13. If no packets are shown the sender has not sent any weather packets the latest 10 day(s).
| Time | Temp. | Humidity | Pressure | Rain* | Wind** | Luminosity | Snow |
|---|---|---|---|---|---|---|---|
| 1787650706 | 29.44° C | 77% | 1008.8 hPa | 0 mm | 2.24 m/s, 248° | 402 W/m² | - |
| 1787650645 | 29.44° C | 77% | 1008.7 hPa | 0 mm | 1.79 m/s, 174° | 425 W/m² | - |
| 1787650586 | 29.44° C | 77% | 1008.8 hPa | 0 mm | 3.58 m/s, 313° | 403 W/m² | - |
| 1787650523 | 29.44° C | 77% | 1008.8 hPa | 0 mm | 2.24 m/s, 292° | 408 W/m² | - |
| 1787650462 | 29.44° C | 76% | 1008.8 hPa | 0 mm | 1.79 m/s, 346° | 441 W/m² | - |
| 1787650400 | 29.44° C | 76% | 1008.9 hPa | 0 mm | 3.13 m/s, 225° | 415 W/m² | - |
| 1787650340 | 29.44° C | 76% | 1008.8 hPa | 0 mm | 4.02 m/s, 313° | 429 W/m² | - |
| 1787650278 | 29.44° C | 77% | 1008.7 hPa | 0 mm | 2.68 m/s, 280° | 535 W/m² | - |
| 1787650218 | 29.44° C | 77% | 1008.8 hPa | 0 mm | 1.79 m/s, 221° | 665 W/m² | - |
| 1787650156 | 29.44° C | 77% | 1008.7 hPa | 0 mm | 1.79 m/s, 147° | 392 W/m² | - |
| 1787650096 | 29.44° C | 77% | 1009 hPa | 0 mm | 1.79 m/s, 257° | 449 W/m² | - |
| 1787650034 | 30° C | 77% | 1009 hPa | 0 mm | 3.13 m/s, 353° | 456 W/m² | - |
| 1787649974 | 30° C | 76% | 1008.8 hPa | 0 mm | 4.02 m/s, 192° | 422 W/m² | - |
| 1787649913 | 30° C | 77% | 1008.8 hPa | 0 mm | 1.79 m/s, 269° | 431 W/m² | - |
| 1787649851 | 30° C | 76% | 1009 hPa | 0 mm | 3.13 m/s, 305° | 312 W/m² | - |
| 1787649790 | 30° C | 76% | 1008.9 hPa | 0 mm | 0.89 m/s, 226° | 321 W/m² | - |
| 1787649729 | 30° C | 76% | 1008.7 hPa | 0 mm | 1.79 m/s, 130° | 479 W/m² | - |
| 1787649668 | 30° C | 76% | 1008.9 hPa | 0 mm | 0.89 m/s, 307° | 542 W/m² | - |
| 1787649608 | 30° C | 76% | 1008.7 hPa | 0 mm | 2.68 m/s, 272° | 378 W/m² | - |
| 1787649547 | 30° C | 76% | 1008.7 hPa | 0 mm | 2.68 m/s, 319° | 434 W/m² | - |
| 1787649486 | 30° C | 76% | 1008.6 hPa | 0 mm | 1.79 m/s, 290° | 1102 W/m² | - |
| 1787649425 | 30° C | 76% | 1008.7 hPa | 0 mm | 2.24 m/s, 147° | 1113 W/m² | - |
| 1787649364 | 30° C | 76% | 1008.7 hPa | 0 mm | 2.24 m/s, 299° | 1112 W/m² | - |
| 1787649303 | 30° C | 76% | 1008.8 hPa | 0 mm | 1.79 m/s, 282° | 984 W/m² | - |
| 1787649242 | 30° C | 75% | 1008.7 hPa | 0 mm | 2.68 m/s, 208° | 943 W/m² | - |
* Rain latest hour (hover to see other rain measurements)
** Current wind speed in m/s (hover to see current wind gust speed)